This is the latest recevied weather packets stored in our database for station/object KF7ROW. If no packets are shown the sender has not sent any weather packets the latest 10 day(s).
| Time | Temp. | Humidity | Pressure | Rain* | Wind** | Luminosity | Snow |
|---|---|---|---|---|---|---|---|
| 1777265172 | 10° C | 88% | 1019.2 hPa | 0 mm | - | 0 W/m² | - |
| 1777264870 | 10° C | 88% | 1019.1 hPa | 0 mm | - | 0 W/m² | - |
| 1777264566 | 10° C | 87% | 1019.2 hPa | 0 mm | - | 0 W/m² | - |
| 1777264263 | 10.56° C | 85% | 1019.3 hPa | 0 mm | - | 0 W/m² | - |
| 1777263961 | 10.56° C | 85% | 1019.1 hPa | 0 mm | - | 0 W/m² | - |
| 1777263657 | 10.56° C | 85% | 1019 hPa | 0 mm | - | 0 W/m² | - |
| 1777263354 | 10.56° C | 85% | 1019 hPa | 0 mm | - | 0 W/m² | - |
| 1777263051 | 10.56° C | 86% | 1018.9 hPa | 0 mm | - | 0 W/m² | - |
| 1777262748 | 10.56° C | 85% | 1018.8 hPa | 0 mm | - | 0 W/m² | - |
| 1777262444 | 10.56° C | 85% | 1019 hPa | 0 mm | - | 0 W/m² | - |
| 1777262140 | 10.56° C | 84% | 1018.8 hPa | 0 mm | - | 0 W/m² | - |
| 1777261838 | 10.56° C | 83% | 1018.7 hPa | 0 mm | - | 0 W/m² | - |
| 1777261534 | 10.56° C | 84% | 1018.8 hPa | 0 mm | - | 0 W/m² | - |
| 1777261232 | 10.56° C | 84% | 1018.7 hPa | 0 mm | - | 0 W/m² | - |
| 1777260931 | 10.56° C | 83% | 1018.7 hPa | 0 mm | - | 0 W/m² | - |
| 1777260627 | 11.11° C | 83% | 1018.5 hPa | 0 mm | - | 0 W/m² | - |
| 1777260322 | 11.11° C | 81% | 1018.5 hPa | 0 mm | - | 1 W/m² | - |
| 1777260018 | 11.11° C | 80% | 1018.6 hPa | 0 mm | - | 1 W/m² | - |
| 1777259715 | 11.11° C | 80% | 1018.5 hPa | 0 mm | - | 2 W/m² | - |
| 1777259413 | 11.11° C | 80% | 1018.4 hPa | 0 mm | - | 4 W/m² | - |
| 1777259109 | 11.11° C | 80% | 1018.4 hPa | 0 mm | - | 6 W/m² | - |
| 1777258807 | 11.11° C | 80% | 1018.4 hPa | 0 mm | - | 8 W/m² | - |
| 1777258503 | 11.11° C | 80% | 1018.4 hPa | 0 mm | - | 12 W/m² | - |
| 1777258200 | 11.11° C | 80% | 1018.3 hPa | 0 mm | - | 15 W/m² | - |
| 1777257897 | 11.67° C | 81% | 1018.4 hPa | 0 mm | - | 20 W/m² | - |
* Rain latest hour (hover to see other rain measurements)
** Current wind speed in m/s (hover to see current wind gust speed)